Regional Weather Roundup
Issued by NWS

Home | Current Version | Previous Version | Text Only | Print | Product List | Glossary On
Versions: 1 2 3 4 5 6 7 8 9 10 11 12 13 14 15 16 17 18 19 20 21 22 23 24 25 26 27 28 29 30 31 32 33 34 35 36 37 38 39 40 41 42 43 44 45 46 47 48 49 50
656
ASUS43 KBIS 210502
RWRND

NORTH DAKOTA REGIONAL WEATHER ROUNDUP
NATIONAL WEATHER SERVICE BISMARCK ND
1200 AM CDT FRI JUL 21 2017

NOTE: "FAIR" INDICATES FEW OR NO CLOUDS BELOW 12,000 FEET WITH NO
SIGNIFICANT WEATHER AND/OR OBSTRUCTIONS TO VISIBILITY.


NDZ001>003-009>011-017-210600-
NORTHWEST NORTH DAKOTA

CITY           SKY/WX    TMP DP  RH WIND       PRES   REMARKS
WILLISTON      CLOUDY    77  59  53 E15G23    29.80F
MINOT          CLOUDY    70  62  76 E12       29.84F
MINOT AFB      CLOUDY    67  62  82 SE14      29.81F
$$

NDZ018>021-031>035-040>046-210600-
SOUTHWEST NORTH DAKOTA

CITY           SKY/WX    TMP DP  RH WIND       PRES   REMARKS
BISMARCK       CLOUDY    75  57  53 SE9       29.83F
DICKINSON      CLOUDY    69  60  73 SE17G23   29.82R
GARRISON         N/A     71  56  58 E8        29.85S
HETTINGER ARPT CLOUDY    71  60  68 S14       29.86F
$$

NDZ004>008-012>016-024-026-027-054-210600-
NORTHEAST NORTH DAKOTA

CITY           SKY/WX    TMP DP  RH WIND       PRES   REMARKS
GRAND FORKS    CLOUDY    73  65  75 E8        29.87F
GRND FRKS AFB  PTCLDY    70  63  80 SE5       29.88F
DEVILS LAKE    MOCLDY    73  66  78 NE6       29.89S
$$

NDZ022-023-025-028>030-036>039-047>053-210600-
SOUTHEAST NORTH DAKOTA

CITY           SKY/WX    TMP DP  RH WIND       PRES   REMARKS
FARGO          CLOUDY    77  67  71 SE7       29.88F
JAMESTOWN      CLOUDY    72  66  81 E6        29.88S
$$





USA.gov is the U.S. government's official web portal to all federal, state and local government web resources and services.